Location: Casone le Fosse
(44.6547°N, 12.1103°E)
Time: 12:02:14
(UTC+00:00)

Meteor 2-8 Rocket - Pass Details

Date: 29 October 2020
Orbit: 937 x 957 km, 82.5° (Epoch: 27 November)

Event Time Altitude Azimuth Distance (km) Brightness Sun altitude
Rises 17:11:14 0° 185° (S) 3,600 7.6 -12.4°
Reaches altitude 10° 17:13:42 10° 186° (S) 2,663 6.9 -12.9°
Maximum altitude 17:19:48 88° 99° (E) 959 4.4 -14.0°
Drops below altitude 10° 17:25:59 10° 9° (N) 2,694 6.7 -15.1°
Sets 17:28:30 0° 10° (N) 3,645 7.4 -15.5°
